This is the latest recevied weather packets stored in our database for station/object WK1F-2. If no packets are shown the sender has not sent any weather packets the latest 1 day(s).
| Time | Temp. | Humidity | Pressure | Rain* | Wind** | Luminosity | Snow |
|---|---|---|---|---|---|---|---|
| 1778008645 | 25° C | 52% | 1016.4 hPa | 0 mm | 4.92 m/s, 98° | - | - |
| 1778008345 | 25° C | 52% | 1016.4 hPa | 0 mm | 5.36 m/s, 88° | - | - |
| 1778008045 | 25° C | 50% | 1016.4 hPa | 0 mm | 2.68 m/s, 101° | - | - |
| 1778007745 | 24.44° C | 51% | 1016.4 hPa | 0 mm | 0.89 m/s, 56° | - | - |
| 1778007445 | 25° C | 52% | 1016.4 hPa | 0 mm | 4.02 m/s, 70° | - | - |
| 1778007145 | 24.44° C | 51% | 1016.5 hPa | 0 mm | 3.58 m/s, 73° | - | - |
| 1778006845 | 24.44° C | 51% | 1016.5 hPa | 0 mm | 3.58 m/s, 104° | - | - |
| 1778006545 | 24.44° C | 51% | 1016.6 hPa | 0 mm | 4.47 m/s, 112° | - | - |
| 1778006245 | 24.44° C | 51% | 1016.6 hPa | 0 mm | 3.58 m/s, 118° | - | - |
| 1778005951 | 24.44° C | 52% | 1016.7 hPa | 0 mm | 2.68 m/s, 88° | - | - |
| 1778005645 | 24.44° C | 51% | 1016.7 hPa | 0 mm | 2.68 m/s, 50° | - | - |
| 1778005345 | 24.44° C | 53% | 1016.8 hPa | 0 mm | 2.24 m/s, 79° | - | - |
| 1778005045 | 24.44° C | 53% | 1016.8 hPa | 0 mm | 2.24 m/s, 109° | - | - |
| 1778004745 | 24.44° C | 52% | 1016.9 hPa | 0 mm | 4.92 m/s, 97° | - | - |
| 1778004445 | 24.44° C | 51% | 1016.9 hPa | 0 mm | 4.92 m/s, 150° | - | - |
| 1778004145 | 24.44° C | 53% | 1017 hPa | 0 mm | 4.92 m/s, 111° | - | - |
| 1778003844 | 24.44° C | 53% | 1017 hPa | 0 mm | 1.79 m/s, 63° | - | - |
| 1778003544 | 24.44° C | 53% | 1017 hPa | 0 mm | 4.47 m/s, 118° | - | - |
| 1778003244 | 24.44° C | 52% | 1017.1 hPa | 0 mm | 1.79 m/s, 199° | - | - |
| 1778002944 | 24.44° C | 51% | 1017.2 hPa | 0 mm | 4.47 m/s, 98° | - | - |
| 1778002644 | 24.44° C | 51% | 1017.1 hPa | 0 mm | 4.92 m/s, 91° | - | - |
| 1778002344 | 24.44° C | 54% | 1017 hPa | 0 mm | 4.02 m/s, 97° | - | - |
| 1778002044 | 24.44° C | 54% | 1017.1 hPa | 0 mm | 3.13 m/s, 184° | - | - |
| 1778001744 | 24.44° C | 54% | 1016.9 hPa | 0 mm | 2.24 m/s, 93° | - | - |
| 1778001444 | 24.44° C | 53% | 1017 hPa | 0 mm | 2.68 m/s, 125° | - | - |
* Rain latest hour (hover to see other rain measurements)
** Current wind speed in m/s (hover to see current wind gust speed)